DW9033 Weather Reports


time (UTC)temp
C
wind
direction
speed
KPH
gust
KPH
rain 1hr
cm
rain 24hr
cm
rain mn
cm
humidity
%
barometer
mb
20260504040026 8 199 0.0 0.0 0.00 0.00 0.00 86 1016.4
20260504034524 8 199 0.0 0.0 0.00 0.00 0.00 85 1016.4
20260504033023 8 199 0.0 0.0 0.00 0.00 0.00 83 1016.4
20260504031523 9 199 0.0 0.0 0.00 0.00 0.00 82 1016.4
20260504030023 9 199 0.0 0.0 0.00 0.00 0.00 79 1016.2
20260504024531 10 199 0.0 0.0 0.00 0.00 0.00 77 1016.2
20260504021524 10 199 0.0 0.0 0.00 0.00 0.00 75 1016.0
20260504020008 10 199 0.0 0.0 0.00 0.00 0.00 72 1015.8
20260504014509 11 199 0.0 0.0 0.00 0.00 0.00 72 1015.6
20260504013009 11 199 0.0 0.0 0.00 0.00 0.00 67 1015.5
20260504011507 12 199 0.0 0.0 0.00 0.00 0.00 62 1015.4
20260504010006 13 199 0.0 0.0 0.00 0.00 0.00 60 1015.3
20260504004507 14 199 0.0 0.0 0.00 0.00 0.00 56 1015.2
20260504003005 15 155 0.0 0.0 0.00 0.00 0.00 52 1015.1
20260504001506 17 154 0.0 0.0 0.00 0.00 0.00 47 1015.0
20260504000138 18 155 0.0 1.6 0.00 0.00 0.00 43 1014.9
20260503234552 20 121 0.0 6.4 0.00 0.00 0.00 39 1014.8
20260503233051 20 155 0.0 8.0 0.00 0.00 0.00 37 1014.9
20260503231551 21 165 0.0 11.3 0.00 0.00 0.00 38 1014.9
20260503230054 21 176 0.0 9.7 0.00 0.00 0.00 36 1014.9
20260503224549 21 175 1.6 11.3 0.00 0.00 0.00 35 1015.0
20260503223049 21 163 3.2 9.7 0.00 0.00 0.00 34 1015.0
20260503221547 21 155 1.6 11.3 0.00 0.00 0.00 35 1015.1
20260503220046 21 150 1.6 12.9 0.00 0.00 0.00 36 1015.1
20260503214534 21 130 0.0 6.4 0.00 0.00 0.00 34 1015.2
20260503213033 21 151 3.2 14.5 0.00 0.00 0.00 35 1015.3
20260503211531 21 140 6.4 16.1 0.00 0.00 0.00 34 1015.4
20260503210030 21 271 1.6 14.5 0.00 0.00 0.00 36 1015.4
20260503204528 21 267 1.6 9.7 0.00 0.00 0.00 35 1015.6
20260503203033 21 281 6.4 17.7 0.00 0.00 0.00 32 1015.7
20260503201526 21 186 4.8 14.5 0.00 0.00 0.00 32 1016.1
20260503200025 21 200 3.2 11.3 0.00 0.00 0.00 33 1016.4
20260503194512 21 277 4.8 11.3 0.00 0.00 0.00 32 1016.6
20260503193011 20 270 4.8 14.5 0.00 0.00 0.00 32 1016.9
20260503191609 20 183 3.2 17.7 0.00 0.00 0.00 34 1017.1
20260503190007 20 242 3.2 11.3 0.00 0.00 0.00 35 1017.3
20260503184512 19 273 8.0 14.5 0.00 0.00 0.00 35 1017.4
20260503183006 20 240 3.2 11.3 0.00 0.00 0.00 36 1017.6
20260503181504 19 302 4.8 12.9 0.00 0.00 0.00 35 1017.7
20260503180003 18 163 6.4 11.3 0.00 0.00 0.00 36 1018.1
20260503174544 18 318 3.2 14.5 0.00 0.00 0.00 36 1018.1
20260503173044 19 178 3.2 12.9 0.00 0.00 0.00 33 1018.4
20260503171522 18 290 3.2 11.3 0.00 0.00 0.00 38 1018.7
20260503081519 7 249 0.0 1.6 0.00 0.00 0.00 72 1016.8
20260503071513 7 271 0.0 1.6 0.00 0.00 0.00 73 1016.1
20260503054635 7 288 0.0 1.6 0.00 0.00 0.00 68 1015.8
20260503053038 8 288 0.0 1.6 0.00 0.00 0.00 67 1015.9
20260503051533 7 313 0.0 1.6 0.00 0.00 0.00 70 1015.9
20260503050036 7 244 0.0 0.0 0.00 0.00 0.00 74 1015.8
20260503044544 7 244 0.0 0.0 0.00 0.00 0.00 73 1015.8
20260503043042 7 244 0.0 0.0 0.00 0.00 0.00 72 1015.8
20260503041514 7 244 0.0 0.0 0.00 0.00 0.00 72 1015.7